Location: Newark
(46.7000°N, 60.6000°W)
Time: 07:44:16
(UTC+00:00)

Vanguard 3 - Pass Details

Date: 31 October 2020
Orbit: 508 x 3262 km, 33.3° (Epoch: 29 November)

Event Time Altitude Azimuth Distance (km) Brightness Sun altitude
Rises 11:44:52 0° 262° (W) 6,717 11.4 8.6°
Reaches altitude 10° 11:49:12 10° 258° (WSW) 5,916 11.2 9.2°
Maximum altitude 12:07:31 52° 190° (S) 3,742 10.9 11.8°
Drops below altitude 10° 12:24:05 10° 121° (ESE) 5,395 13.8 14.0°
Sets 12:27:50 0° 116° (ESE) 6,115 13.3 14.5°
